�������l�o���
Date,Time,MP-1(��Sv/h),MP-2(��Sv/h),MP-3(��Sv/h),MP-4(��Sv/h),MP-5(��Sv/h),MP-6(��Sv/h),MP-7(��Sv/h),MP-8(��Sv/h),����,����(m/s),���J
2016/10/13,00:00,1.157,1.932,1.366,2.117,1.487,0.597,1.067,0.983,�k�k��,4.1,��
2016/10/13,00:10,1.158,1.933,1.365,2.119,1.485,0.598,1.068,0.984,�k�k��,4.7,��
2016/10/13,00:20,1.156,1.933,1.364,2.116,1.487,0.599,1.067,0.983,�k�k��,3.9,��
2016/10/13,00:30,1.155,1.930,1.365,2.120,1.488,0.599,1.066,0.983,�k�k��,3.4,��
2016/10/13,00:40,1.155,1.932,1.364,2.118,1.488,0.597,1.068,0.982,�k��,3.4,��
2016/10/13,00:50,1.159,1.932,1.364,2.117,1.489,0.597,1.067,0.983,�k�k��,4.1,��
2016/10/13,01:00,1.156,1.933,1.364,2.119,1.486,0.599,1.067,0.983,�k�k��,4.9,��
2016/10/13,01:10,1.154,1.931,1.362,2.119,1.486,0.598,1.067,0.983,�k�k��,4.9,��
2016/10/13,01:20,1.153,1.930,1.364,2.119,1.486,0.598,1.067,0.984,�k�k��,4.9,��
2016/10/13,01:30,1.154,1.929,1.362,2.117,1.488,0.599,1.067,0.985,�k��,4.4,��
2016/10/13,01:40,1.156,1.930,1.366,2.119,1.482,0.598,1.065,0.985,�k��,3.9,��
2016/10/13,01:50,1.156,1.930,1.366,2.117,1.486,0.598,1.066,0.982,�k��,4.6,��
2016/10/13,02:00,1.157,1.931,1.362,2.118,1.486,0.599,1.068,0.984,�k��,4.2,��
2016/10/13,02:10,1.155,1.931,1.365,2.117,1.482,0.598,1.070,0.983,�k��,3.8,��
2016/10/13,02:20,1.154,1.929,1.365,2.118,1.485,0.598,1.067,0.983,�k��,3.3,��
2016/10/13,02:30,1.156,1.933,1.363,2.116,1.486,0.599,1.067,0.984,�k��,3.4,��
2016/10/13,02:40,1.156,1.932,1.363,2.119,1.486,0.599,1.068,0.983,�k�k��,4.1,��
2016/10/13,02:50,1.158,1.931,1.367,2.116,1.487,0.600,1.067,0.983,�k�k��,6.0,��
2016/10/13,03:00,1.155,1.930,1.364,2.118,1.487,0.599,1.067,0.985,�k�k��,5.2,��
2016/10/13,03:10,1.156,1.927,1.363,2.120,1.487,0.600,1.068,0.984,�k�k��,4.6,��
2016/10/13,03:20,1.155,1.929,1.362,2.118,1.486,0.600,1.065,0.985,�k��,3.3,��
2016/10/13,03:30,1.154,1.930,1.363,2.114,1.486,0.597,1.066,0.984,�k��,3.5,��
2016/10/13,03:40,1.156,1.930,1.363,2.117,1.485,0.600,1.066,0.984,�k�k��,3.9,��
2016/10/13,03:50,1.155,1.928,1.367,2.117,1.485,0.599,1.069,0.984,�k�k��,4.2,��
2016/10/13,04:00,1.155,1.930,1.361,2.118,1.488,0.598,1.066,0.983,�k��,4.1,��
2016/10/13,04:10,1.157,1.931,1.364,2.118,1.485,0.600,1.068,0.985,�k��,4.4,��
2016/10/13,04:20,1.158,1.931,1.363,2.121,1.484,0.597,1.068,0.984,�k�k��,4.2,��
2016/10/13,04:30,1.157,1.931,1.364,2.119,1.485,0.598,1.067,0.984,�k�k��,5.8,��
2016/10/13,04:40,1.158,1.928,1.363,2.119,1.487,0.598,1.066,0.984,�k�k��,6.0,��
2016/10/13,04:50,1.157,1.931,1.366,2.119,1.486,0.598,1.067,0.982,�k�k��,6.3,��
2016/10/13,05:00,1.159,1.931,1.362,2.117,1.485,0.598,1.066,0.984,�k�k��,6.3,��
2016/10/13,05:10,1.156,1.930,1.365,2.119,1.483,0.598,1.066,0.985,�k�k��,5.8,��
2016/10/13,05:20,1.155,1.931,1.362,2.120,1.483,0.597,1.066,0.982,�k�k��,6.0,��
2016/10/13,05:30,1.154,1.931,1.362,2.115,1.483,0.598,1.066,0.983,�k�k��,6.0,��
2016/10/13,05:40,1.155,1.930,1.361,2.119,1.482,0.596,1.067,0.984,�k�k��,5.2,��
2016/10/13,05:50,1.158,1.931,1.363,2.115,1.483,0.598,1.067,0.983,�k�k��,4.9,��
2016/10/13,06:00,1.155,1.929,1.364,2.119,1.485,0.598,1.065,0.984,�k�k��,4.4,��
2016/10/13,06:10,1.155,1.930,1.362,2.119,1.485,0.598,1.066,0.985,�k�k��,4.1,��
2016/10/13,06:20,1.155,1.929,1.363,2.119,1.484,0.597,1.068,0.984,�k�k��,4.2,��
2016/10/13,06:30,1.157,1.931,1.359,2.117,1.484,0.598,1.067,0.984,�k��,3.3,��
2016/10/13,06:40,1.156,1.925,1.363,2.119,1.485,0.599,1.066,0.984,�k��,4.1,��
2016/10/13,06:50,1.157,1.933,1.364,2.117,1.483,0.598,1.066,0.983,�k��,4.4,��
2016/10/13,07:00,1.158,1.934,1.364,2.118,1.485,0.598,1.070,0.984,�k��,4.1,��
2016/10/13,07:10,1.157,1.930,1.363,2.118,1.484,0.598,1.067,0.983,�k��,3.1,��
2016/10/13,07:20,1.160,1.931,1.366,2.122,1.485,0.598,1.067,0.985,�k�k��,3.6,��
2016/10/13,07:30,1.156,1.933,1.358,2.120,1.486,0.597,1.068,0.985,�k�k��,4.1,��
2016/10/13,07:40,1.155,1.933,1.358,2.119,1.483,0.598,1.067,0.986,�k��,3.8,��
2016/10/13,07:50,1.156,1.930,1.357,2.118,1.487,0.598,1.067,0.984,�k��,3.4,��
2016/10/13,08:00,1.156,1.928,1.360,2.121,1.489,0.599,1.064,0.985,�k��,3.5,��
2016/10/13,08:10,1.157,1.927,1.362,2.123,1.486,0.599,1.066,0.987,�k�k��,2.7,��
2016/10/13,08:20,1.158,1.930,1.361,2.121,1.483,0.600,1.064,0.983,�k�k��,2.7,��
2016/10/13,08:30,1.156,1.931,1.360,2.121,1.486,0.598,1.066,0.985,�k�k��,2.4,��
2016/10/13,08:40,1.156,1.932,1.359,2.124,1.487,0.598,1.065,0.986,�k��,2.6,��
2016/10/13,08:50,1.157,1.933,1.359,2.122,1.490,0.600,1.066,0.987,�k��,2.0,��
2016/10/13,09:00,1.156,1.932,1.363,2.121,1.486,0.600,1.065,0.987,�k��,1.4,��
2016/10/13,09:10,1.158,1.931,1.358,2.122,1.488,0.600,1.066,0.986,�k�k��,1.7,��
2016/10/13,09:20,1.157,1.935,1.362,2.122,1.486,0.600,1.066,0.985,�k��,1.3,��
2016/10/13,09:30,1.159,1.930,1.362,2.123,1.485,0.599,1.065,0.986,�k�k��,2.0,��
2016/10/13,09:40,1.157,1.936,1.364,2.126,1.486,0.600,1.067,0.984,�k�k��,1.9,��
2016/10/13,09:50,1.160,1.934,1.365,2.127,1.484,0.597,1.065,0.986,�k,1.8,��
2016/10/13,10:00,1.158,1.930,1.366,2.124,1.487,0.598,1.065,0.985,�k,1.9,��
2016/10/13,10:10,1.159,1.932,1.361,2.125,1.487,0.600,1.066,0.984,�k�k��,1.7,��
2016/10/13,10:20,1.160,1.934,1.346,2.122,1.486,0.600,1.065,0.985,�k,1.7,��
2016/10/13,10:30,1.158,1.935,1.341,2.124,1.488,0.598,1.066,0.985,�k�k��,1.3,��
2016/10/13,10:40,1.161,1.935,1.353,2.126,1.491,0.600,1.065,0.985,�k�k��,1.5,��
2016/10/13,10:50,1.161,1.936,1.357,2.124,1.489,0.600,1.064,0.982,�k,1.7,��
2016/10/13,11:00,1.159,1.935,1.368,2.126,1.490,0.598,1.067,0.984,�k��,0.9,��
2016/10/13,11:10,1.158,1.939,1.366,2.122,1.487,0.601,1.067,0.985,�k�k��,1.5,��
2016/10/13,11:20,1.162,1.938,1.363,2.103,1.487,0.598,1.067,0.983,�k��,1.9,��
2016/10/13,11:30,1.160,1.935,1.367,2.103,1.487,0.599,1.066,0.984,�k,1.8,��
2016/10/13,11:40,1.159,1.935,1.366,2.128,1.486,0.602,1.070,0.984,���k��,2.3,��
2016/10/13,11:50,1.158,1.935,1.364,2.127,1.482,0.600,1.067,0.982,�k�k��,2.1,��
2016/10/13,12:00,1.159,1.934,1.361,2.126,1.473,0.598,1.070,0.982,�k�k��,2.6,��
2016/10/13,12:10,1.156,1.932,1.359,2.129,1.484,0.600,1.067,0.985,�k��,2.4,��
2016/10/13,12:20,1.158,1.936,1.359,2.126,1.491,0.599,1.069,0.982,�k��,2.6,��
2016/10/13,12:30,1.159,1.933,1.361,2.128,1.489,0.598,1.067,0.984,�k��,2.1,��
2016/10/13,12:40,1.159,1.937,1.356,2.128,1.490,0.598,1.067,0.983,�k��,2.7,��
2016/10/13,12:50,1.158,1.933,1.353,2.127,1.490,0.599,1.065,0.985,�k�k��,2.4,��
2016/10/13,13:00,1.158,1.929,1.349,2.131,1.490,0.599,1.067,0.984,���k��,2.6,��
2016/10/13,13:10,1.161,1.934,1.348,2.128,1.490,0.598,1.068,0.983,�k��,2.5,��
2016/10/13,13:20,1.158,1.933,1.349,2.132,1.493,0.600,1.067,0.985,�k��,1.9,��
2016/10/13,13:30,1.160,1.938,1.349,2.127,1.492,0.599,1.067,0.985,���k��,2.7,��
2016/10/13,13:40,1.160,1.935,1.351,2.128,1.491,0.598,1.069,0.983,��,1.9,��
2016/10/13,13:50,1.159,1.935,1.350,2.128,1.493,0.601,1.069,0.985,��,2.9,��
2016/10/13,14:00,1.159,1.939,1.351,2.128,1.492,0.598,1.068,0.984,���k��,2.2,��
2016/10/13,14:10,1.159,1.937,1.353,2.131,1.492,0.599,1.069,0.984,��,2.1,��
2016/10/13,14:20,1.160,1.940,1.352,2.132,1.494,0.600,1.069,0.983,��,2.3,��
2016/10/13,14:30,1.159,1.936,1.355,2.131,1.494,0.598,1.069,0.983,�쓌,1.5,��
2016/10/13,14:40,1.159,1.936,1.357,2.130,1.494,0.601,1.069,0.983,��쓌,2.0,��
2016/10/13,14:50,1.159,1.935,1.355,2.130,1.494,0.602,1.070,0.983,��,3.1,��
2016/10/13,15:00,1.159,1.934,1.357,2.131,1.492,0.600,1.068,0.982,��,3.3,��
2016/10/13,15:10,1.162,1.937,1.359,2.130,1.493,0.600,1.068,0.984,��,3.3,��
2016/10/13,15:20,1.159,1.937,1.360,2.130,1.493,0.601,1.069,0.983,��,3.5,��
2016/10/13,15:30,1.162,1.940,1.362,2.132,1.493,0.603,1.069,0.981,��,3.8,��
2016/10/13,15:40,1.161,1.940,1.362,2.135,1.492,0.602,1.069,0.985,��,3.6,��
2016/10/13,15:50,1.162,1.946,1.364,2.130,1.495,0.602,1.068,0.984,��,3.6,��
2016/10/13,16:00,1.162,1.944,1.362,2.133,1.496,0.602,1.066,0.985,��,3.1,��
2016/10/13,16:10,1.163,1.944,1.362,2.132,1.495,0.601,1.067,0.986,��,3.3,��
2016/10/13,16:20,1.162,1.944,1.362,2.128,1.498,0.603,1.066,0.986,��,3.2,��
2016/10/13,16:30,1.163,1.942,1.363,2.130,1.496,0.600,1.068,0.986,��,2.6,��
2016/10/13,16:40,1.161,1.943,1.361,2.129,1.495,0.602,1.066,0.987,��,2.5,��
2016/10/13,16:50,1.162,1.940,1.360,2.129,1.497,0.602,1.068,0.986,��,3.1,��
2016/10/13,17:00,1.161,1.941,1.361,2.129,1.499,0.601,1.069,0.986,��,3.5,��
2016/10/13,17:10,1.161,1.940,1.360,2.129,1.497,0.603,1.069,0.986,��,4.4,��
2016/10/13,17:20,1.160,1.941,1.357,2.127,1.497,0.603,1.070,0.985,��,4.9,��
2016/10/13,17:30,1.162,1.940,1.358,2.130,1.497,0.602,1.066,0.985,��,5.2,��
2016/10/13,17:40,1.162,1.939,1.360,2.128,1.500,0.602,1.068,0.986,��,4.5,��
2016/10/13,17:50,1.161,1.943,1.360,2.128,1.499,0.602,1.069,0.986,��,3.6,��
2016/10/13,18:00,1.162,1.945,1.360,2.128,1.497,0.601,1.069,0.984,��,5.8,��
2016/10/13,18:10,1.164,1.941,1.361,2.127,1.496,0.600,1.068,0.986,��쐼,5.2,��
2016/10/13,18:20,1.158,1.941,1.356,2.129,1.494,0.602,1.069,0.984,��쐼,4.7,��
2016/10/13,18:30,1.160,1.941,1.360,2.131,1.494,0.602,1.072,0.985,��쐼,4.5,��
2016/10/13,18:40,1.162,1.941,1.357,2.127,1.494,0.601,1.067,0.986,��쐼,4.4,��
2016/10/13,18:50,1.161,1.941,1.358,2.129,1.496,0.600,1.070,0.985,��쐼,4.7,��
2016/10/13,19:00,1.161,1.939,1.360,2.130,1.494,0.601,1.069,0.985,��쐼,3.9,��
2016/10/13,19:10,1.161,1.943,1.359,2.129,1.495,0.601,1.069,0.986,��쐼,3.8,��
2016/10/13,19:20,1.159,1.941,1.357,2.131,1.495,0.601,1.070,0.986,�쐼,3.9,��
2016/10/13,19:30,1.159,1.939,1.360,2.129,1.495,0.600,1.069,0.986,�쐼,3.6,��
2016/10/13,19:40,1.160,1.942,1.358,2.130,1.494,0.602,1.071,0.986,�쐼,3.8,��
2016/10/13,19:50,1.160,1.940,1.357,2.129,1.497,0.602,1.070,0.985,�쐼,3.2,��
2016/10/13,20:00,1.160,1.939,1.358,2.131,1.495,0.601,1.070,0.984,�쐼,3.0,��
2016/10/13,20:10,1.159,1.943,1.359,2.126,1.498,0.603,1.068,0.983,���쐼,2.7,��
2016/10/13,20:20,1.160,1.940,1.359,2.127,1.496,0.601,1.070,0.984,���쐼,2.2,��
2016/10/13,20:30,1.159,1.942,1.359,2.130,1.492,0.601,1.069,0.985,��쐼,2.2,��
2016/10/13,20:40,1.161,1.940,1.358,2.130,1.496,0.600,1.069,0.987,�쐼,2.2,��
2016/10/13,20:50,1.162,1.938,1.358,2.125,1.495,0.600,1.067,0.985,���쐼,1.7,��
2016/10/13,21:00,1.159,1.941,1.359,2.130,1.494,0.600,1.067,0.984,��,1.6,��
2016/10/13,21:10,1.158,1.936,1.360,2.128,1.496,0.602,1.067,0.984,��,1.9,��
2016/10/13,21:20,1.158,1.939,1.357,2.129,1.496,0.601,1.068,0.984,���k��,2.9,��
2016/10/13,21:30,1.158,1.940,1.357,2.129,1.496,0.600,1.069,0.985,�k��,2.8,��
2016/10/13,21:40,1.157,1.941,1.357,2.127,1.496,0.600,1.068,0.987,�k��,3.4,��
2016/10/13,21:50,1.161,1.937,1.359,2.126,1.495,0.599,1.069,0.985,�k��,4.4,��
2016/10/13,22:00,1.158,1.936,1.358,2.126,1.494,0.599,1.067,0.986,�k��,5.0,��
2016/10/13,22:10,1.158,1.935,1.356,2.128,1.495,0.600,1.068,0.985,�k��,4.9,��
2016/10/13,22:20,1.159,1.940,1.358,2.132,1.495,0.601,1.070,0.985,���k��,4.2,��
2016/10/13,22:30,1.158,1.938,1.359,2.130,1.494,0.601,1.069,0.985,�k��,3.6,��
2016/10/13,22:40,1.163,1.939,1.357,2.126,1.495,0.600,1.068,0.984,�k��,3.1,��
2016/10/13,22:50,1.160,1.941,1.358,2.129,1.490,0.598,1.070,0.987,���k��,3.0,��
2016/10/13,23:00,1.157,1.938,1.356,2.129,1.495,0.600,1.069,0.988,���k��,3.4,��
2016/10/13,23:10,1.158,1.942,1.356,2.129,1.493,0.601,1.066,0.987,���k��,2.8,��
2016/10/13,23:20,1.156,1.940,1.357,2.125,1.490,0.600,1.068,0.985,���k��,3.2,��
2016/10/13,23:30,1.158,1.939,1.357,2.126,1.493,0.600,1.068,0.984,���k��,4.1,��
2016/10/13,23:40,1.156,1.937,1.354,2.130,1.493,0.598,1.067,0.983,���k��,4.9,��
2016/10/13,23:50,1.156,1.938,1.357,2.128,1.495,0.600,1.069,0.984,���k��,5.2,��
